cover

Martin Patino - Freedom Is The Answer (Original Mix)

Get it on iTunes StoreListen on Apple Music

Trackname / Key / BPM / Publish dateArtists, Remixers / Label
125 bpm, 8A / A minor, 2014-08-29, Tech House,  1  32

Tracks in release YouANDme Presents: "BEST OF TEN YRS ROTARY COCKTAIL RECORDINGS"

#Trackname / Key / BPM / Publish dateArtists, Remixers / Label
1 120 bpm, 6A / G minor, 2014-08-29, Electronica,  1  32
2 111 bpm, 3A / Bb minor, 2014-08-29, Deep House,  0  32
3 127 bpm, 8A / A minor, 2014-08-29, Deep House,  0  32
4 124 bpm, 8A / A minor, 2014-08-29, Deep House,  0  32
5 124 bpm, 8A / A minor, 2014-08-29, Tech House,  0  32
6 120 bpm, 12A / Db minor, 2014-08-29, Tech House,  1  32
7 125 bpm, 6B / Bb major, 2014-08-29, Deep House,  0  32
8 122 bpm, 9B / G major, 2014-08-29, Deep House,  0  32
9 123 bpm, 2A / Eb minor, 2014-08-29, Techno,  0  32
10 126 bpm, 11B / A major, 2014-08-29, Techno,  1  32
11 124 bpm, 9A / E minor, 2014-08-29, Techno,  0  32
12 128 bpm, 7B / F major, 2014-08-29, Techno,  1  32
13 120 bpm, 12B / E major, 2014-08-29, Tech House,  0  32
14 124 bpm, 10B / D major, 2014-08-29, Tech House,  0  32
15 122 bpm, 6B / Bb major, 2014-08-29, Tech House,  0  32
16 125 bpm, 8A / A minor, 2014-08-29, Tech House,  1  32
17 118 bpm, 11A / F# minor, 2014-08-29, Tech House,  1  32
18 122 bpm, 8A / A minor, 2014-08-29, Deep House,  0  32
19 130 bpm, 3B / Db major, 2014-08-29, Tech House,  0  32
20 123 bpm, 10A / B minor, 2014-08-29, Deep House,  0  32
21 125 bpm, 3A / Bb minor, 2014-08-29, Tech House,  0  32
22 125 bpm, 9B / G major, 2014-08-29, Tech House,  0  32
23 120 bpm, 8A / A minor, 2014-08-29, Deep House,  0  32
24 126 bpm, 7A / D minor, 2014-08-29, Techno,  0  32
25 120 bpm, 6B / Bb major, 2014-08-29, Indie Dance / Nu Disco,  0  32
26 121 bpm, 2A / Eb minor, 2014-08-29, Techno,  0  32
27 124 bpm, 8A / A minor, 2014-08-29, Techno,  0  32
28 122 bpm, 11A / F# minor, 2014-08-29, Techno,  0  32
29 124 bpm, 4B / Ab major, 2014-08-29, Techno,  0  32
30 125 bpm, / , 2014-08-29, Deep House,  0  32
31 126 bpm, 7B / F major, 2014-08-29, Tech House,  0  32
32 124 bpm, 8A / A minor, 2014-08-29, Techno,  2  32

Recommendations

#Trackname / Key / BPM / Publish dateArtists, Remixers / Label
1 123 bpm, 3A / Bb minor, 2014-08-11, Indie Dance / Nu Disco,  3  1   4
2 127 bpm, 11B / A major, 2014-08-11, Deep House,  3  1   3
3 123 bpm, 10A / B minor, 2014-07-07, Techno,  2  1   20
4 126 bpm, 8A / A minor, 2014-07-25, Deep House,  2  1   5
5 123 bpm, 8A / A minor, 2014-08-15, Deep House,  2  1   3
6 124 bpm, 8A / A minor, 2014-08-18, Tech House,  1  1   19
7 124 bpm, 12B / E major, 2014-08-15, Deep House,  1  1   3
8 120 bpm, 7A / D minor, 2014-09-01, Progressive House,  1  1   32

Charts

ArtistTitleGenresPublish date
Andrea SpeedAndrea Speed Hide in septemberTechno, Tech House, Deep House, Progressive House, Indie Dance / Nu Disco 2014-09-05
×

Sign in

Sign in to access your personalized pages, follow artists and labels you love, and create playlists fromyour favorite tracks.

Please wait...